sat.trackr.live / text

‹ back to catalog

STARLINK-32191

NORAD 60314 · 2024-133P

PAYLOAD ACTIVE UNKNOWN

§ Identity

Operator
Country
US
Launch date
2024-07-28
Launch site
AFWTR
Launch vehicle
Mass (kg)
RCS (m²)

Purposes: comms

External: N2YO · Heavens-Above · Gunter

§ Orbital elements

Epoch: 2026-09-21T18:47:26.004768Z

Period
93.85 min
Inclination
53.1593°
Eccentricity
0.0001234
Mean motion
15.34384578 rev/d
Perigee alt
461.9 km
Apogee alt
463.6 km
Semi-major
6,840.9 km
B*
-1.4032e-5
RAAN
104.0587°
Arg perigee
86.5772°
Mean anomaly
273.5371°
Rev number
12,169

§ Raw data

STARLINK-321911 60314U 24133P   26264.78293987 -.00000850  00000+0 -14032-4 0  99982 60314  53.1593 104.0587 0001234  86.5772 273.5371 15.34384578121697

JSON: /api/v1/satellites/60314 · /tle

For live sub-satellite position, see the globe view (requires WebGL).

§ Visibility from observer

Set your observer location to see the next 7 days of passes ≥ 10°. The values pass through the URL so the page stays shareable.

No JS? Fill the form by hand. The geolocation button needs JavaScript.